International Virtual Aviation Organisation

Russian Federation and Kazakhstan MCD

 

Карточка аэропорта UMKK

Внимание!
Информация на этой странице в стадии наполнения.
Если вы не увидели какой-то информации, или заметили неточность - пожалуйста сообщите нам!
Спасибо!
Команда RU-STAFF
Название аэропортаХраброво
Название аэропорта (англ.)Khrabrovo
Превышение43 ft. (13.1 m.)
Координаты54°53.4', 20°35.55'
Высота перехода1000m
Эшелон переходаQFE>=742mm:FL050; QFE<742:FL060
Коды ответчика6620-6637
Зона ОрВДКалининград РПИ (UMKK)
Данные METARUMKK 140730Z 23006MPS CAVOK 18/14 Q1010 R24/290095 NOSIG RMK QFE756/1009
Проноз погоды (TAF)UMKK 140459Z 1406/1506 22007G12MPS 9999 BKN011 TEMPO 1406/1418 SCT007 BECMG 1408/1410 26008G16MPS BECMG 1418/1420 25005G10MPS BECMG 1422/1424 VRB01MPS
NOTAMshow/hide NOTAM
AWOS   TABLE

Информация о ВПП

ВПП Длина ВПП (м.) Покрытие Курс ВПП Частота ILS
062500Асфальтобетон61 
242500Асфальтобетон241109.5

Диспетчерские позиции

Позывной Наименование органа УВД Частота
UMKK_APPКалининград-Подход126.0
UMKK_TWRКалининград-Вышка127.2



Спутниковое изображение